Wind_Speed
14 6 5 7 7 9 9 9 9 7 7 8 8 6 7 7 3 2 2 0 2 3 6 8 6 7 8 6 10 19 20 15 15 14 14 15 15 16 16 16 16 15 15 15 16 18 18 18 18 19 20 20 20 20 19 19 18 18 18 19 19 18 18 19 19 19 19 19 19 19 19 19 19 19 19 19 19 20 19 19 20 19 18 20 21 22
12 6 6 8 7 8 10 10 10 10 8 7 8 6 6 5 2 2 2 1 1 2 5 8 7 8 8 6 7 14 16 13 17 17 17 18 18 18 18 17 16 14 15 16 17 18 19 19 19 19 20 20 21 21 21 20 19 19 20 20 20 20 20 21 21 21 20 21 20 20 19 18 17 17 17 18 18 18 18 18 18 17 18 19 20 20
8 7 7 10 9 7 8 10 8 7 7 6 7 6 4 4 4 3 3 1 1 1 1 2 4 7 7 6 8 11 12 14 20 20 19 20 20 20 20 19 18 17 17 17 18 19 19 19 19 19 21 22 22 22 22 22 21 22 22 22 22 22 22 22 22 21 21 21 21 20 19 18 17 17 17 17 17 17 17 16 15 15 16 18 18 18
6 6 7 10 11 9 9 9 5 4 5 3 6 6 5 5 5 1 1 0 2 1 2 2 2 5 6 6 8 15 19 16 17 19 18 19 20 20 20 19 20 20 19 19 19 20 20 19 19 20 21 23 24 25 25 24 24 24 24 24 23 23 23 23 22 22 21 21 21 20 19 18 18 17 17 17 17 17 17 15 14 14 14 16 17 16
5 2 2 4 9 10 9 8 6 3 4 3 2 3 5 7 4 3 4 4 2 2 1 2 3 5 5 7 8 10 15 13 13 16 16 17 19 18 17 18 19 20 20 19 18 18 19 19 19 19 20 22 23 25 25 25 25 25 25 25 24 24 24 23 22 22 22 21 21 21 20 20 19 19 19 19 18 17 17 16 14 13 14 15 16 16
4 1 1 1 7 9 7 7 7 5 3 2 0 1 4 8 7 8 9 6 3 1 3 3 1 6 5 10 9 5 6 8 10 13 15 16 18 19 19 18 19 20 20 19 18 18 18 19 19 20 20 21 22 23 23 24 24 24 24 24 24 24 24 24 23 23 22 22 22 22 22 21 21 20 20 19 18 17 16 15 14 14 15 16 16 16
1 0 1 2 6 7 5 5 6 6 3 2 2 4 3 10 10 11 10 5 4 3 2 3 4 4 4 4 7 6 6 7 6 7 12 14 16 18 20 19 20 21 21 21 21 20 20 21 21 21 21 22 22 23 23 23 23 23 24 23 24 24 25 25 24 23 23 23 22 22 22 21 20 20 19 17 16 15 15 15 15 15 14 15 16 16
2 1 0 2 4 5 5 4 5 7 4 2 3 4 6 12 9 10 9 4 3 2 2 1 2 2 4 5 2 7 7 6 4 6 9 11 13 12 13 16 18 19 21 21 21 21 21 22 22 23 23 24 25 25 25 24 24 24 24 23 23 24 24 25 24 24 23 23 22 21 21 20 20 20 18 17 16 15 15 15 15 15 14 14 15 15
2 2 2 4 5 4 4 1 3 5 3 2 6 3 5 9 7 8 6 3 1 3 1 3 2 2 4 5 1 5 6 6 7 8 8 11 13 11 11 13 14 16 18 18 19 19 21 21 23 24 25 26 26 27 27 27 26 26 25 24 24 24 24 24 24 24 23 22 21 20 19 19 19 19 18 17 16 15 15 15 15 15 14 14 15 15
2 1 0 2 4 3 2 2 4 1 3 4 5 1 6 6 5 5 5 4 3 1 3 6 4 2 4 5 3 2 3 6 8 7 8 12 13 11 11 11 11 13 14 15 16 18 19 19 21 23 24 24 25 25 26 26 26 26 25 24 24 24 24 23 22 22 20 19 17 17 17 18 18 19 18 17 16 14 14 14 13 13 13 13 14 15
1 2 3 2 2 2 4 2 4 1 6 7 3 4 7 5 4 4 3 5 4 1 3 3 2 2 3 5 5 4 4 5 6 5 7 10 13 10 9 8 8 9 10 13 15 16 16 16 17 19 20 20 19 19 20 21 22 23 23 22 22 22 21 19 18 17 16 15 15 15 16 16 16 16 14 12 11 10 9 9 10 11 11 12 13 13
2 2 2 2 1 2 4 3 6 3 6 6 3 5 5 4 4 5 3 3 2 3 3 3 4 2 3 5 3 3 3 1 2 7 8 9 12 11 9 8 8 8 9 10 12 12 12 12 14 15 15 14 14 14 14 14 16 17 17 17 16 15 13 12 13 13 13 13 13 13 12 11 10 9 7 5 5 4 4 5 6 7 9 9 10 11
3 1 1 1 1 3 3 3 4 4 1 2 4 6 5 2 1 1 1 1 2 3 3 2 3 1 4 7 5 5 5 2 4 7 11 13 14 12 10 10 9 9 9 9 10 10 11 12 13 13 13 13 12 12 12 13 13 13 13 12 11 11 11 11 11 11 10 9 9 8 7 6 5 4 3 1 0 2 3 4 5 6 7 8 8 9
2 1 1 2 1 4 2 3 4 1 2 3 6 6 5 4 3 2 3 2 2 2 3 3 2 1 3 6 7 5 5 8 10 12 15 15 15 13 11 11 11 11 11 12 13 13 14 14 14 15 15 15 14 14 14 14 14 14 14 14 13 13 12 11 10 10 9 9 9 9 9 8 7 5 4 3 1 1 3 4 5 6 6 7 8 9
3 0 2 2 1 4 2 1 3 4 3 4 4 4 4 4 4 4 4 3 3 0 2 3 1 3 3 3 4 1 7 12 14 15 16 14 13 12 12 12 13 14 14 15 16 16 17 17 17 18 18 18 18 18 17 17 17 16 16 15 14 14 14 13 13 13 13 12 12 11 10 8 6 5 3 1 0 2 3 4 5 5 6 6 7 8
6 2 1 1 2 1 2 2 1 4 4 3 2 3 2 3 4 3 2 4 5 2 0 2 2 4 3 1 2 5 10 11 11 12 14 12 12 12 13 13 14 14 15 16 18 19 20 20 20 20 20 20 20 19 19 19 18 18 18 18 17 17 17 16 15 14 13 12 11 9 8 6 5 3 2 2 2 3 4 5 5 6 6 7 7 7
7 2 3 2 2 3 1 2 3 2 3 1 2 3 3 3 6 5 0 1 4 2 2 3 2 4 2 1 1 6 7 6 7 9 11 13 13 13 14 14 14 15 16 18 19 21 22 22 22 22 22 22 22 21 21 21 21 20 20 19 18 18 17 15 14 12 11 10 9 8 6 5 4 3 2 2 3 3 4 4 5 5 6 6 6 6
5 2 3 1 1 2 2 2 2 2 2 3 3 4 3 1 3 4 2 2 2 1 2 3 4 4 2 2 1 4 6 5 5 7 10 14 15 15 14 14 15 17 18 19 21 23 24 24 25 25 25 24 23 23 22 21 20 19 19 18 16 16 15 14 12 11 10 8 7 6 5 4 2 2 2 2 3 3 4 4 4 4 4 4 5 6
5 4 2 3 1 1 2 1 2 1 2 2 2 2 2 1 1 1 2 2 2 2 2 3 5 4 4 4 3 5 8 8 7 7 8 11 14 16 16 16 17 18 20 22 23 24 26 26 26 25 25 24 23 22 20 19 18 17 17 16 15 14 13 12 11 10 8 7 6 5 3 3 2 1 1 2 2 3 3 2 2 2 2 3 4 5
4 4 1 3 2 1 1 0 4 3 1 1 1 2 2 2 3 3 3 3 3 3 3 2 1 3 5 6 8 11 11 10 10 8 8 12 16 19 19 19 20 21 23 24 25 26 26 26 25 24 23 22 21 20 19 18 17 16 16 15 14 13 12 11 9 8 7 6 5 4 3 2 2 1 1 1 1 1 1 0 0 1 2 3 4 6
3 3 3 1 2 1 1 1 3 4 4 2 1 2 2 1 2 1 2 1 4 3 3 1 1 5 5 2 5 10 12 11 12 9 9 15 18 19 21 22 23 24 25 26 26 26 26 25 25 23 22 20 19 18 17 16 16 15 15 14 13 12 11 10 9 8 7 6 5 4 3 3 2 1 1 1 1 1 1 1 0 1 3 4 5 6
1 3 5 3 1 2 1 1 1 2 3 2 2 4 4 3 4 2 2 1 2 2 3 3 2 6 4 2 3 2 4 8 14 13 11 17 20 20 22 25 26 27 28 27 26 26 25 25 24 22 20 18 17 16 16 15 15 14 13 12 11 11 10 9 8 8 7 6 5 5 4 3 3 2 2 2 3 3 2 1 1 2 4 5 6 7
3 4 5 3 1 2 0 1 2 1 1 1 1 2 3 4 4 4 3 3 1 1 1 3 1 5 5 2 5 3 4 2 15 19 17 19 23 23 24 26 28 28 27 27 26 26 25 24 22 21 19 17 16 16 15 14 14 13 12 11 11 10 10 9 9 8 7 6 6 5 5 4 4 4 4 4 4 3 2 1 2 3 4 5 5 6
3 4 4 3 2 1 1 0 1 1 1 1 2 3 3 2 3 4 3 2 2 2 2 2 3 6 5 4 5 4 5 4 11 20 21 22 23 25 27 28 28 28 27 27 26 25 24 23 21 20 18 17 17 16 15 14 13 12 11 11 11 10 10 9 9 8 8 7 6 6 5 5 4 4 4 4 4 3 2 1 2 2 3 4 5 7
4 3 4 4 2 1 2 1 1 2 1 2 2 3 3 2 4 3 0 1 1 4 6 5 4 6 4 4 4 4 3 3 5 13 20 23 25 28 30 29 28 28 28 27 26 25 24 22 21 20 19 18 17 16 15 14 13 12 11 11 11 10 10 10 9 8 8 7 6 6 5 5 5 5 5 4 4 3 2 1 0 1 3 5 7 9
6 3 5 5 5 5 3 3 4 2 2 1 0 4 5 5 6 5 1 2 2 5 6 5 5 5 3 2 1 2 1 2 5 9 15 21 26 28 31 31 29 29 29 28 27 25 24 23 22 21 21 19 18 17 15 14 13 12 12 11 11 10 10 10 9 8 8 7 7 6 6 6 6 6 5 4 4 3 3 1 1 3 6 8 10 13
4 2 5 7 7 8 7 7 6 6 6 5 6 8 9 8 8 6 3 4 6 4 4 5 6 6 4 2 3 4 4 5 7 8 11 17 24 28 30 32 31 30 29 29 28 26 26 25 24 23 21 20 18 17 15 14 13 13 13 12 12 11 11 10 10 9 9 8 8 8 8 8 7 6 5 4 3 2 1 1 4 6 9 11 13 15
3 3 7 8 8 8 6 7 8 10 9 12 13 13 12 9 8 7 5 8 6 4 5 8 7 8 7 5 6 7 6 5 7 11 14 18 25 27 29 30 30 30 29 28 28 28 28 27 25 24 22 20 18 17 16 15 14 14 14 14 13 13 12 12 11 11 11 10 10 9 9 8 6 5 4 2 1 1 2 4 7 9 12 14 16 18
3 5 6 7 8 4 3 6 9 11 9 9 11 13 12 10 10 10 11 12 7 6 8 10 10 11 9 6 8 8 10 11 13 18 18 18 23 27 29 30 30 30 31 31 31 31 30 28 27 25 23 21 19 18 17 17 16 16 16 15 15 14 14 13 13 13 12 11 10 9 8 7 5 4 2 1 3 4 6 7 10 12 14 16 17 18
2 4 5 7 8 4 4 5 6 9 8 7 8 10 10 11 12 13 14 15 12 10 13 12 11 10 7 6 7 8 14 17 15 17 19 19 24 28 29 29 30 31 33 34 33 32 31 29 28 26 24 22 21 20 19 19 19 18 17 16 16 15 15 14 14 13 12 10 9 8 7 5 3 1 1 3 5 7 9 10 12 13 15 16 16 17
1 2 3 6 5 3 3 4 3 4 5 5 5 6 9 11 12 13 14 14 11 11 13 12 9 10 7 7 4 5 12 14 13 17 22 22 24 26 28 30 30 32 34 34 34 33 32 31 29 27 25 23 22 22 21 21 20 19 19 18 17 16 15 14 13 12 11 10 9 7 5 4 2 2 3 6 8 9 10 11 12 13 14 15 16 16
2 1 1 4 4 3 1 4 5 6 5 1 2 5 10 11 10 12 12 11 9 10 11 9 9 11 8 6 6 7 12 14 14 18 22 23 25 27 30 33 34 35 35 35 35 35 34 33 31 29 27 25 24 23 22 22 21 20 20 18 17 16 15 14 12 11 10 9 8 6 5 3 3 4 5 7 9 10 11 12 13 14 15 16 17 18
5 3 1 3 5 2 2 4 6 6 4 3 6 8 12 11 9 9 9 10 11 11 9 8 11 12 6 7 7 6 9 12 15 19 21 23 27 31 33 35 37 38 38 37 37 37 36 35 32 29 27 25 25 24 23 22 21 20 20 18 17 16 15 14 12 11 9 8 6 6 4 3 3 4 6 8 9 11 12 13 15 16 17 18 19 21
5 5 3 3 3 1 2 4 6 3 5 9 7 9 13 13 11 10 10 13 14 11 9 10 11 9 5 8 9 9 11 15 18 21 21 22 25 30 33 35 36 38 38 37 37 38 37 34 32 29 27 26 26 25 23 22 21 21 20 19 18 17 16 14 12 10 8 7 6 5 4 3 4 5 7 9 10 12 13 15 16 18 19 20 21 23
7 5 3 2 2 1 2 4 3 6 11 9 3 5 10 12 11 11 13 16 15 12 11 12 13 9 7 10 13 16 19 22 22 22 21 20 23 26 29 32 34 36 38 38 38 38 37 35 33 31 29 28 26 25 24 23 23 22 21 20 19 17 16 14 12 9 8 7 6 5 4 3 4 6 8 10 11 13 15 16 18 19 21 22 23 25
10 8 4 2 3 2 2 4 6 7 6 4 2 3 6 7 8 9 13 15 14 11 10 13 15 15 13 14 14 16 18 19 19 21 24 24 24 24 25 28 31 34 37 40 41 41 39 37 34 32 31 29 28 27 25 24 24 23 21 20 19 17 15 13 11 9 7 6 5 4 3 4 6 8 9 11 13 15 16 18 19 21 22 23 24 26
8 10 6 4 5 4 3 5 4 6 7 5 5 6 8 9 8 9 10 13 12 12 13 14 15 15 13 13 13 12 12 11 11 17 25 26 24 23 23 24 26 31 36 39 40 40 38 36 34 32 31 29 28 27 26 25 24 23 22 20 19 16 14 12 10 8 6 5 4 4 4 6 8 9 11 13 14 16 17 19 20 22 23 25 26 27
2 6 8 7 5 5 5 4 2 4 10 11 6 5 11 15 11 8 6 11 10 14 19 16 13 13 9 9 11 11 10 6 5 13 25 27 24 24 24 23 25 30 35 38 38 37 36 35 34 32 31 30 28 27 26 25 24 23 22 20 18 15 13 10 8 7 5 4 4 4 6 7 9 11 12 14 15 16 18 19 21 22 24 26 27 28
4 2 5 6 4 5 6 5 5 7 11 10 5 5 13 21 14 10 5 12 9 12 20 18 13 13 11 13 16 13 8 5 6 14 23 24 23 25 24 24 26 29 32 35 36 36 36 35 34 33 31 30 29 28 27 26 25 23 21 18 16 13 11 9 7 6 4 3 4 5 7 8 10 11 12 14 15 17 19 20 22 23 24 26 28 29
3 3 3 5 5 5 6 6 5 5 7 6 7 7 15 23 18 12 5 11 5 12 22 22 17 18 19 21 20 13 8 10 10 11 14 16 19 24 24 23 25 28 31 33 33 34 36 36 35 34 32 31 30 28 28 26 24 22 19 17 14 12 10 8 6 4 3 3 4 6 8 9 10 12 13 15 16 18 20 21 22 24 25 27 28 30
2 0 3 6 6 5 7 6 4 5 6 5 6 11 20 23 14 8 8 7 4 12 19 22 24 26 25 23 21 15 15 18 14 8 7 10 15 21 22 21 23 25 29 31 32 34 35 35 35 34 33 31 30 28 27 25 22 20 17 15 13 11 9 7 5 3 3 4 5 7 9 10 11 13 14 16 17 18 20 22 23 25 26 27 28 30
4 3 2 5 5 5 4 4 4 6 6 7 7 11 19 15 4 7 7 4 6 8 9 14 20 22 18 18 21 22 21 20 16 11 10 11 14 19 21 22 24 25 27 30 31 33 35 36 35 34 32 31 29 27 26 23 21 19 16 14 12 10 8 6 4 3 3 4 6 8 9 11 12 14 15 16 18 18 20 21 23 24 26 27 29 30
6 5 4 4 5 4 3 5 5 7 4 16 15 7 8 6 4 7 8 7 7 8 6 7 10 10 10 14 19 21 19 17 16 14 13 13 15 17 19 22 24 25 27 29 31 32 34 35 34 33 31 30 28 26 23 21 19 18 15 13 11 9 8 5 4 4 4 5 6 8 10 11 13 14 15 16 17 18 20 20 22 23 25 27 30 32
5 6 5 4 6 6 5 7 6 4 9 21 16 6 10 9 4 8 11 8 7 8 7 5 4 4 6 9 12 17 17 16 16 15 14 14 15 16 18 20 22 25 27 28 30 32 33 34 33 32 30 29 27 24 22 20 19 16 14 12 11 9 7 5 4 4 5 6 7 8 10 12 13 14 15 16 17 18 19 21 22 24 26 29 31 34
6 5 4 3 5 5 5 7 5 4 13 14 3 3 17 16 8 10 12 9 9 7 6 5 3 1 2 4 7 13 15 15 15 15 14 15 16 17 18 20 22 25 27 28 31 32 33 32 32 31 30 28 26 23 22 20 18 15 13 12 11 9 7 6 5 5 5 7 8 9 11 12 12 13 15 16 17 18 20 22 24 26 28 30 32 35
3 3 3 2 3 4 5 6 4 5 10 10 2 4 17 18 11 10 8 5 5 5 4 4 2 1 2 3 5 9 13 14 15 15 15 15 16 18 20 21 23 25 27 29 31 32 32 31 30 30 28 27 25 24 21 19 17 15 13 12 10 8 6 6 5 5 6 8 9 10 11 12 12 13 14 15 16 18 20 23 25 28 30 32 35 37
2 4 3 2 4 5 5 4 6 6 10 12 6 5 13 17 15 12 9 7 6 5 4 4 4 4 5 6 5 7 10 13 14 15 16 17 18 19 21 23 24 26 28 30 32 33 33 32 30 29 28 26 25 23 21 18 16 15 13 11 9 8 7 6 6 7 8 9 10 10 11 11 12 13 14 15 17 19 21 24 27 30 32 35 37 39
3 7 5 4 6 6 3 1 4 5 9 13 11 8 9 12 14 14 13 14 14 12 10 8 7 7 7 7 8 9 10 12 14 16 17 18 19 21 22 24 26 28 30 31 32 33 32 31 30 29 27 26 24 22 19 17 15 14 13 11 9 8 8 7 8 9 9 10 10 10 11 12 12 13 14 16 18 20 23 26 29 32 34 36 38 40
7 8 5 4 5 3 1 1 3 3 3 10 13 12 9 9 10 11 11 10 10 9 8 7 7 7 7 8 9 11 12 14 16 16 17 19 21 22 24 25 27 29 30 32 32 32 31 30 29 28 26 24 22 20 18 16 15 13 12 10 9 9 9 9 9 9 9 9 10 10 11 11 12 14 16 18 20 23 25 28 31 33 35 36 37 38
7 5 3 4 6 5 2 3 5 4 1 4 6 6 8 9 9 9 8 6 6 6 6 6 6 7 7 9 10 12 13 15 15 17 18 19 20 22 24 25 28 30 31 33 33 32 32 30 28 27 25 23 21 18 16 15 14 12 11 10 10 10 9 9 9 9 9 10 10 11 11 12 14 15 18 20 23 25 27 29 31 33 35 36 37 37
5 4 4 5 4 3 2 4 5 6 5 5 6 4 2 2 3 4 5 5 6 7 7 7 7 7 8 9 11 11 11 11 12 15 17 19 20 22 24 26 28 30 32 33 33 33 32 31 29 26 24 22 20 18 16 15 14 12 12 11 11 10 10 9 10 10 11 11 11 11 12 13 15 17 20 22 25 27 29 31 33 34 35 36 36 37
Wind_Direction
189 183 196 208 205 201 203 221 238 228 204 180 187 212 182 164 150 91 82 145 154 150 207 212 210 230 230 218 195 185 184 185 188 194 198 196 197 202 206 209 209 207 209 215 221 223 226 227 228 228 227 226 227 229 231 233 233 233 236 238 237 236 239 241 242 244 247 249 250 251 252 254 257 259 260 261 261 263 267 271 274 275 275 275 272 269
185 205 214 203 213 205 200 221 234 242 238 186 183 207 185 163 128 52 76 135 46 92 208 219 223 243 234 238 230 187 178 191 197 201 207 205 203 206 208 209 208 205 203 206 212 216 221 228 230 231 231 227 227 227 229 233 235 237 239 241 242 241 241 243 245 247 250 253 255 257 260 262 262 263 264 265 266 266 269 272 275 276 275 275 275 272
188 221 208 196 216 215 208 222 223 247 257 193 180 191 184 167 120 51 20 89 69 70 190 205 219 254 247 237 243 217 206 208 206 208 212 211 208 208 210 209 205 202 203 207 212 215 220 228 232 232 234 233 232 232 233 236 238 239 239 239 242 242 242 244 246 249 251 254 257 258 262 263 264 266 269 270 270 271 273 275 277 276 271 272 275 276
191 212 207 196 205 210 212 214 207 254 273 208 175 183 183 163 143 127 280 112 20 87 86 26 285 272 268 255 243 227 227 225 215 214 213 212 209 207 209 208 204 202 204 210 216 221 223 227 231 231 233 235 235 237 238 239 241 241 240 239 239 241 243 244 245 249 251 252 254 255 257 259 261 264 265 266 267 268 272 277 278 276 274 273 275 275
185 184 266 211 200 202 193 190 194 207 259 280 167 177 177 164 141 106 145 142 41 43 108 44 336 290 234 230 246 225 219 216 203 201 203 207 203 201 204 200 198 201 207 215 219 226 230 230 230 229 231 233 235 237 239 240 241 242 241 240 239 240 241 242 243 245 246 246 248 250 249 250 254 257 259 262 263 264 269 276 278 277 276 275 275 273
199 199 21 202 194 193 180 185 196 180 213 279 16 282 172 154 121 106 131 131 93 248 243 119 53 291 232 212 226 201 189 199 188 191 203 210 209 209 211 207 206 210 216 223 225 228 234 237 235 232 230 232 234 236 236 237 238 240 241 239 238 238 239 240 242 242 243 245 247 249 250 252 255 258 261 263 263 264 266 271 272 270 269 270 272 270
183 14 111 191 183 179 182 198 192 174 188 197 231 315 114 128 120 131 150 142 128 202 263 125 158 257 287 242 215 167 168 198 183 202 218 215 217 221 222 223 223 226 229 232 234 232 234 239 241 240 237 235 236 236 235 235 235 236 237 238 237 237 238 239 241 242 244 246 247 250 253 256 259 261 262 261 260 260 260 265 267 266 264 264 269 269
85 80 273 187 163 164 176 200 200 185 192 218 277 315 111 124 130 148 156 152 151 132 26 349 160 189 292 288 206 140 157 193 192 225 227 200 199 210 216 221 223 228 232 233 236 235 234 236 239 241 240 238 238 238 237 235 235 236 236 236 236 236 238 239 242 244 245 247 249 251 253 254 255 258 257 255 254 254 256 259 260 261 261 261 265 267
53 160 185 142 142 165 171 259 262 174 156 257 274 283 127 128 137 144 136 117 115 100 89 260 188 131 265 263 229 121 155 203 212 211 201 181 182 186 193 208 217 224 230 232 234 234 233 233 233 237 238 238 239 238 237 235 234 234 234 235 236 238 240 241 243 247 248 249 251 253 253 250 250 251 251 250 247 248 251 254 257 262 265 265 266 268
355 183 317 121 149 166 141 352 312 83 111 212 239 344 84 98 114 126 122 104 81 89 211 221 185 153 270 247 197 160 185 216 219 199 173 169 172 177 187 203 218 223 225 226 227 230 232 231 230 232 234 236 238 237 237 236 233 233 233 235 238 240 244 247 248 250 250 249 248 247 245 242 242 243 246 247 246 249 256 262 269 277 280 279 277 278
321 67 31 46 133 154 131 66 336 16 127 151 163 79 67 55 54 66 81 88 84 256 243 233 185 128 278 256 194 186 213 210 196 163 142 149 159 170 187 197 208 218 219 217 221 227 230 228 224 225 228 229 232 234 234 233 230 228 229 232 236 241 246 247 244 242 239 235 235 235 235 236 237 241 244 247 250 257 266 274 283 290 294 295 294 293
40 54 36 55 72 170 143 73 7 25 124 123 127 117 84 36 32 36 16 56 112 232 260 318 346 59 222 258 233 191 214 233 162 156 149 145 153 163 174 180 190 201 205 208 213 218 215 212 209 209 213 213 215 217 217 217 217 216 219 223 227 230 231 227 222 222 221 221 224 227 230 231 231 235 239 243 253 272 289 295 300 301 301 304 305 305
74 66 102 92 258 220 165 94 34 357 6 123 145 132 103 86 73 69 225 177 179 236 270 318 334 296 227 252 254 222 196 148 73 135 153 151 150 157 168 177 182 181 182 183 183 185 184 185 187 187 190 191 190 191 189 189 191 191 193 192 191 190 187 189 195 199 200 201 202 200 198 193 182 173 161 142 39 348 333 320 314 310 308 312 313 313
81 10 166 101 254 224 200 129 141 230 255 185 161 144 132 138 148 180 188 185 198 260 294 297 303 256 265 267 255 247 178 134 102 114 140 148 152 160 170 173 168 161 162 163 162 165 167 168 170 170 171 171 170 168 165 165 165 164 164 163 163 165 165 166 169 167 164 161 156 150 144 140 132 124 116 100 62 347 322 309 307 309 311 315 317 319
146 225 193 141 188 192 185 171 157 154 175 201 177 150 156 160 160 174 171 172 176 148 314 300 274 189 205 250 235 117 96 113 113 119 132 139 150 158 160 161 158 155 158 162 162 163 163 162 162 162 161 159 157 154 153 153 153 153 152 150 151 151 147 144 144 141 139 137 135 134 130 128 128 125 128 134 233 275 288 292 299 306 310 314 316 320
167 195 280 302 301 171 149 298 343 121 166 233 160 121 195 191 145 135 161 171 150 112 262 235 246 216 197 209 166 105 90 104 120 129 133 139 151 156 153 154 156 157 160 164 165 163 161 159 157 155 153 151 149 148 146 145 145 144 141 139 139 139 137 136 136 134 133 133 132 134 134 136 141 147 162 202 249 268 281 291 300 306 310 315 318 323
167 187 325 327 346 20 60 315 342 130 187 229 124 161 214 165 113 113 119 32 108 131 213 187 255 280 266 271 146 116 106 113 131 141 144 148 154 154 150 152 157 159 161 164 165 161 158 155 152 149 147 144 142 141 140 138 138 137 136 136 137 137 136 135 136 136 136 137 139 140 144 149 156 174 206 241 262 277 288 295 303 308 313 321 329 339
151 121 334 341 58 4 339 329 5 65 91 107 152 199 195 84 73 116 124 20 85 190 219 169 205 241 212 227 220 134 156 171 171 168 156 154 157 156 154 155 159 160 161 162 160 157 154 151 149 146 143 142 140 140 139 139 139 139 139 139 139 139 139 138 139 140 141 144 147 151 158 167 183 211 243 274 283 292 300 302 308 317 327 341 357 3
123 107 343 341 11 280 328 29 162 356 43 131 197 208 129 104 276 165 154 162 159 193 245 227 216 215 199 200 189 187 197 193 189 185 163 162 167 161 157 159 161 162 162 160 158 156 154 151 149 148 146 145 145 145 144 144 144 143 143 142 143 142 142 143 145 146 150 155 160 167 175 185 205 233 268 293 298 301 306 308 321 353 15 16 12 4
106 119 193 312 303 232 339 80 182 208 235 178 349 29 82 143 176 177 186 176 150 175 226 259 231 241 236 206 184 194 202 190 183 186 174 174 175 167 163 164 165 165 163 161 160 158 157 155 154 153 153 152 151 151 150 149 148 148 147 146 147 149 148 150 153 156 162 169 173 180 185 185 199 223 254 276 284 289 282 262 40 49 28 10 359 351
84 98 138 263 305 201 185 212 186 180 179 174 133 150 171 150 124 140 250 176 130 159 207 203 249 262 254 228 188 194 197 189 182 179 175 176 174 168 168 169 169 168 166 166 165 163 162 162 161 160 160 159 158 157 155 154 153 153 153 153 154 157 158 160 164 167 173 178 179 182 184 184 191 196 205 217 203 202 190 176 177 359 355 351 347 344
81 92 123 147 183 162 176 310 56 126 165 170 171 180 177 151 122 120 258 258 113 144 182 164 231 273 263 341 356 188 187 188 180 169 165 171 171 169 172 175 172 170 171 171 170 170 169 169 168 167 166 165 163 162 160 159 160 160 161 162 164 166 167 170 172 173 176 180 181 183 183 182 184 180 183 187 185 187 188 197 300 340 347 349 348 347
99 91 108 123 165 165 151 35 83 98 152 138 220 218 168 164 160 152 196 234 181 147 124 129 208 278 266 340 7 15 20 137 171 167 164 168 170 171 174 176 174 174 176 177 177 177 177 176 176 175 173 171 169 169 168 167 168 170 170 172 174 175 175 174 174 174 177 179 179 178 175 171 171 173 180 185 187 192 201 263 330 347 352 352 352 352
111 95 107 95 27 355 346 107 95 27 68 150 245 218 165 188 185 158 172 175 155 176 145 127 244 268 280 345 3 356 17 73 159 167 166 167 169 172 176 176 177 180 183 184 185 185 183 182 182 180 179 178 177 177 177 176 177 179 179 180 181 179 177 176 174 174 173 172 171 168 166 167 169 176 187 192 195 205 221 287 336 351 352 352 354 354
160 130 124 115 93 31 360 349 329 323 218 212 235 186 155 99 104 115 171 78 113 208 169 152 232 255 283 341 356 349 14 63 147 164 168 170 170 173 176 177 180 185 187 189 190 188 187 186 185 184 184 184 184 185 185 184 184 184 185 184 183 181 178 175 173 171 169 167 169 169 172 179 182 186 194 197 196 199 199 206 283 339 347 352 353 352
159 158 140 137 155 172 184 204 210 201 183 207 214 160 174 172 147 152 177 141 228 227 174 167 228 253 299 332 329 330 336 189 181 170 171 175 174 174 175 179 185 189 191 192 191 189 188 188 187 188 189 190 190 190 191 190 188 187 187 185 183 182 180 177 175 174 175 176 179 185 189 189 189 189 192 192 190 187 185 195 315 340 343 344 345 344
131 185 169 167 182 188 195 202 174 133 135 182 199 188 189 195 184 161 133 177 207 210 195 214 229 246 272 256 229 241 222 210 206 185 171 172 175 176 178 183 188 191 194 194 192 190 190 190 191 192 193 194 194 194 194 192 189 188 187 184 183 185 185 184 183 184 186 187 189 192 192 189 187 185 185 184 183 184 192 315 336 338 337 337 337 336
99 200 193 192 200 196 191 190 163 149 170 193 197 197 194 190 179 166 189 215 193 162 234 241 227 238 244 207 212 231 215 209 210 194 181 174 177 179 181 185 189 192 194 194 193 193 193 193 194 194 196 196 195 196 194 190 189 189 188 187 186 188 189 188 190 191 190 188 188 188 186 183 180 176 176 177 194 322 334 336 335 333 333 332 332 331
123 194 204 199 205 192 129 151 160 166 186 194 192 199 195 180 173 182 212 224 194 171 232 236 216 229 238 206 211 220 201 201 204 196 187 178 178 182 184 187 190 192 194 195 195 196 196 196 196 197 197 196 195 195 193 191 191 190 190 191 190 190 190 191 192 191 187 184 182 180 177 175 173 171 174 299 326 329 332 333 331 330 329 328 327 328
117 191 194 181 199 202 117 129 161 171 182 192 194 195 185 180 187 197 214 225 216 211 233 238 231 240 237 202 215 221 208 206 199 189 186 181 182 185 185 188 191 194 197 197 197 198 198 199 199 198 198 196 196 196 194 194 193 192 192 193 192 191 190 190 190 186 182 179 177 176 176 177 179 189 303 322 322 324 326 328 327 326 325 324 324 324
117 212 177 150 185 219 133 106 106 137 156 184 198 183 171 179 196 207 219 226 222 227 241 250 262 267 243 195 184 187 186 181 170 178 188 189 186 185 186 191 195 198 200 199 199 200 201 201 201 200 198 197 197 197 197 196 194 194 194 193 192 192 189 187 185 181 179 178 178 180 185 194 222 290 312 315 316 319 322 324 325 325 324 324 324 324
126 265 36 109 154 227 165 110 92 65 61 60 247 191 176 180 195 207 217 219 209 219 239 248 256 259 240 177 152 156 161 162 167 179 187 190 190 192 194 197 201 202 203 202 201 202 203 203 202 201 199 198 199 199 197 197 196 195 195 193 191 189 186 183 183 182 183 183 186 193 200 219 262 300 309 311 316 320 324 327 327 327 326 325 325 325
134 130 76 122 158 227 356 100 114 76 43 270 243 206 190 193 202 208 222 225 212 208 216 223 235 241 213 161 174 185 172 175 182 184 189 194 197 202 205 205 206 207 206 205 204 205 206 205 203 201 200 199 200 200 198 198 197 196 193 191 190 188 185 186 187 189 191 193 201 212 222 245 283 308 313 316 322 325 328 329 327 327 327 327 327 327
148 148 158 159 164 201 24 80 104 120 233 239 222 188 193 202 201 204 224 226 216 209 213 227 238 237 188 171 189 195 193 197 201 203 206 208 208 210 212 212 211 211 209 207 207 207 208 206 202 200 200 201 201 200 198 197 196 194 193 191 190 189 188 190 193 197 202 209 221 233 244 269 302 317 320 323 327 328 329 329 328 329 329 329 328 328
159 161 166 167 167 163 90 90 135 218 232 242 228 171 196 208 205 212 232 233 222 215 222 240 252 245 212 202 202 204 211 214 215 220 226 231 230 225 220 218 216 213 211 209 209 210 210 208 204 201 201 201 200 199 197 195 194 194 192 190 190 191 191 194 198 203 211 222 235 248 265 300 322 328 329 331 331 331 331 331 330 331 330 330 329 329
167 171 172 162 152 130 111 157 209 246 267 282 288 198 189 198 201 216 243 247 234 219 217 232 244 242 232 227 219 215 222 223 221 228 234 238 239 232 227 226 223 220 218 216 215 215 213 210 207 204 202 200 198 197 195 194 193 193 192 191 192 194 195 198 202 208 217 228 241 262 294 325 336 335 334 333 332 332 332 332 332 331 329 328 328 328
166 168 172 180 182 182 180 191 227 302 310 269 235 204 187 194 194 198 237 253 236 218 219 227 237 240 233 229 222 208 207 212 223 233 232 232 234 235 238 241 236 227 223 220 217 216 214 210 207 205 203 199 197 196 194 193 193 193 193 194 194 196 199 200 204 211 219 231 251 287 319 334 339 337 334 333 333 332 332 331 331 330 327 325 325 325
127 162 171 182 191 180 175 191 211 257 257 244 222 177 189 204 199 169 208 256 245 217 218 224 234 237 222 203 196 182 177 191 233 238 230 227 229 234 237 237 231 225 221 218 215 214 212 209 206 204 202 199 196 194 194 193 193 193 194 195 196 197 199 200 203 211 220 240 275 308 327 335 337 335 333 332 331 331 331 331 329 327 325 324 324 325
50 85 148 165 183 175 180 205 199 215 248 244 203 167 188 194 179 130 177 255 256 210 215 222 226 227 212 190 182 167 156 193 238 241 234 229 230 232 230 225 220 218 218 218 218 217 214 210 206 202 200 198 196 193 193 193 194 194 194 194 194 195 197 198 203 212 229 265 298 317 328 332 333 332 331 331 331 331 330 329 327 326 325 325 325 326
66 48 129 172 197 184 183 212 215 229 256 225 184 185 179 171 152 123 201 256 227 179 207 216 212 218 216 200 187 172 176 214 235 246 237 231 232 233 231 226 221 217 215 215 216 216 214 209 204 199 196 195 194 192 192 192 192 192 193 192 192 192 194 199 207 219 247 285 305 319 327 330 330 330 330 331 332 331 329 327 325 325 325 326 326 327
133 142 171 189 208 197 190 217 246 255 241 202 178 170 156 147 142 160 214 242 165 175 206 209 207 218 217 198 188 193 211 223 237 249 228 221 228 228 224 221 218 216 215 213 211 211 209 203 199 197 194 192 192 192 191 191 190 190 190 190 190 191 195 201 211 229 264 296 310 318 325 327 329 330 330 330 330 328 327 325 324 325 326 326 326 326
166 179 185 191 203 206 199 212 259 266 226 163 140 156 152 145 176 212 188 144 140 173 206 207 210 221 219 202 205 216 222 228 238 241 227 223 225 222 218 215 212 210 209 208 207 206 202 197 194 193 192 190 190 190 189 188 188 188 188 189 189 192 197 203 217 245 273 298 308 316 323 325 328 328 327 326 324 323 323 324 325 326 326 326 326 326
168 165 186 201 192 192 205 194 225 271 200 137 127 144 173 174 205 176 145 124 138 148 162 193 206 213 210 209 217 222 223 226 229 229 223 219 220 218 215 212 211 209 207 205 203 201 198 195 191 190 189 188 187 187 186 186 188 188 188 189 190 194 201 207 223 246 270 292 304 316 322 323 323 322 319 319 319 320 322 324 325 327 327 327 327 326
178 172 183 207 189 177 197 202 210 244 162 147 141 172 198 191 164 144 142 132 128 129 134 155 175 198 208 214 217 217 218 219 220 221 216 212 213 216 213 210 209 209 207 204 200 197 195 194 191 188 187 185 184 185 185 186 189 189 187 190 194 198 204 212 226 248 274 295 307 315 316 314 314 313 313 316 318 320 323 325 326 328 328 328 327 326
207 193 164 182 193 187 207 214 203 162 164 163 122 161 180 177 145 132 140 129 124 130 129 130 142 213 249 245 224 216 218 218 217 219 218 214 213 214 213 210 208 207 205 202 198 193 192 193 191 187 184 183 184 186 187 188 190 190 189 194 198 201 208 219 236 261 283 297 303 304 304 304 307 309 312 316 318 321 324 326 327 328 328 328 327 327
230 199 141 140 200 236 244 213 161 138 174 181 61 120 174 181 170 155 154 135 131 139 128 128 148 304 316 288 235 216 219 221 217 216 216 214 213 212 211 209 206 205 204 199 195 190 188 189 189 186 185 185 186 188 190 191 191 191 194 199 202 208 218 231 249 270 282 288 292 293 296 300 304 308 313 317 321 325 327 328 329 328 328 329 328 328
279 193 172 156 180 211 241 204 151 161 195 198 192 166 178 192 203 212 232 252 249 247 239 228 251 276 285 289 270 236 228 225 220 217 215 213 213 212 211 209 205 202 200 197 193 189 187 187 187 187 187 188 189 191 193 193 191 193 198 205 210 219 229 242 258 269 276 282 287 289 294 299 304 310 316 320 324 327 329 329 329 329 329 330 329 329
191 178 182 197 191 191 220 194 147 164 190 198 206 208 191 196 213 226 239 250 257 263 261 259 267 270 269 274 268 254 244 233 229 228 220 214 214 213 210 208 204 198 195 192 190 188 187 187 188 188 189 191 193 194 194 194 195 199 204 211 219 228 239 251 261 268 275 280 285 290 296 302 308 314 320 324 327 328 329 329 329 329 330 330 330 329
151 165 177 184 193 202 310 128 129 105 189 208 215 224 228 226 225 227 234 246 258 269 274 279 285 279 268 261 257 253 247 237 233 231 225 219 216 213 210 206 202 198 193 190 189 188 188 189 190 191 192 194 196 197 197 198 202 207 212 220 229 236 247 255 261 267 274 279 286 295 301 308 315 321 324 326 328 329 330 330 330 329 329 329 329 329
145 170 182 162 192 225 244 178 164 135 137 213 215 236 252 255 254 256 260 268 280 291 302 308 304 291 274 261 254 250 243 235 229 227 226 225 221 217 213 207 202 198 194 192 191 190 190 191 193 194 196 199 200 201 202 204 209 215 220 227 235 242 250 258 263 269 277 284 292 299 306 314 321 325 327 328 329 329 329 328 328 327 327 328 329 329
166 191 183 157 186 206 109 100 136 136 108 83 75 63 24 344 319 303 300 302 302 308 316 316 311 299 278 261 250 240 235 233 229 224 224 225 223 219 216 210 205 201 197 195 194 193 193 194 196 198 200 203 205 206 208 211 215 220 226 233 240 248 256 263 270 276 281 288 294 302 312 319 323 326 328 328 328 327 326 325 326 326 326 327 328 328
Height
1517 1519 1520 1519 1516 1515 1516 1516 1516 1513 1513 1517 1519 1521 1520 1522 1528 1529 1529 1528 1527 1531 1533 1530 1531 1531 1529 1529 1529 1530 1531 1532 1533 1533 1534 1534 1535 1536 1537 1538 1539 1540 1541 1542 1543 1544 1546 1547 1549 1550 1551 1553 1554 1555 1556 1557 1558 1560 1561 1562 1564 1565 1566 1567 1568 1569 1569 1570 1571 1571 1572 1573 1573 1574 1575 1575 1575 1576 1576 1577 1577 1578 1578 1578 1578 1579
1515 1518 1517 1514 1513 1513 1514 1515 1514 1512 1512 1514 1517 1521 1520 1522 1530 1531 1528 1529 1528 1531 1531 1529 1530 1530 1527 1527 1526 1527 1529 1530 1530 1530 1531 1532 1533 1534 1535 1536 1538 1538 1539 1540 1542 1543 1544 1545 1547 1548 1550 1551 1552 1553 1555 1556 1557 1559 1559 1560 1562 1563 1564 1565 1566 1567 1568 1569 1570 1570 1571 1572 1572 1573 1573 1574 1574 1575 1575 1575 1576 1576 1577 1576 1576 1576
1516 1515 1512 1511 1511 1511 1513 1513 1513 1513 1512 1513 1516 1520 1523 1524 1530 1533 1531 1529 1529 1530 1530 1529 1531 1530 1526 1525 1525 1525 1526 1526 1526 1526 1528 1529 1530 1531 1532 1534 1536 1536 1537 1538 1540 1541 1542 1544 1545 1546 1547 1549 1551 1552 1553 1554 1555 1557 1558 1559 1560 1561 1562 1563 1564 1566 1567 1568 1569 1569 1570 1571 1571 1571 1572 1572 1573 1573 1573 1574 1574 1575 1575 1575 1575 1575
1516 1512 1508 1508 1510 1510 1512 1512 1512 1513 1512 1512 1515 1519 1524 1524 1526 1531 1534 1533 1531 1532 1532 1532 1533 1530 1526 1525 1523 1522 1522 1522 1523 1524 1525 1526 1527 1529 1530 1531 1533 1534 1535 1536 1537 1539 1540 1542 1543 1544 1545 1547 1548 1550 1551 1553 1553 1554 1556 1557 1558 1559 1560 1561 1563 1564 1565 1566 1567 1568 1569 1570 1570 1570 1571 1571 1571 1571 1571 1572 1573 1573 1573 1573 1573 1573
1511 1508 1506 1506 1507 1508 1510 1512 1512 1515 1515 1513 1513 1517 1521 1522 1521 1525 1532 1534 1533 1534 1534 1533 1536 1531 1525 1524 1521 1518 1519 1519 1520 1521 1522 1523 1525 1526 1527 1528 1530 1531 1533 1534 1535 1536 1538 1539 1541 1542 1543 1544 1546 1547 1548 1550 1551 1553 1554 1555 1556 1557 1558 1559 1561 1562 1563 1564 1566 1567 1568 1568 1569 1569 1569 1570 1570 1570 1570 1571 1571 1571 1571 1571 1571 1571
1507 1506 1506 1505 1505 1506 1509 1512 1512 1515 1518 1516 1515 1514 1515 1519 1521 1525 1530 1533 1537 1539 1533 1533 1542 1535 1519 1518 1519 1515 1517 1518 1518 1519 1519 1521 1522 1524 1525 1526 1528 1529 1530 1532 1533 1534 1535 1536 1538 1539 1541 1542 1543 1545 1546 1547 1549 1550 1552 1553 1554 1555 1556 1557 1558 1560 1561 1562 1564 1565 1566 1566 1567 1568 1568 1568 1569 1569 1569 1569 1569 1569 1569 1569 1569 1569
1506 1506 1506 1505 1505 1506 1509 1511 1510 1512 1518 1520 1517 1513 1512 1517 1522 1527 1529 1530 1537 1539 1532 1531 1541 1537 1521 1515 1515 1514 1517 1517 1517 1518 1518 1519 1521 1521 1523 1524 1525 1527 1528 1529 1530 1531 1533 1533 1535 1536 1538 1539 1540 1542 1543 1545 1546 1548 1549 1551 1552 1553 1554 1555 1556 1558 1559 1560 1561 1563 1564 1565 1566 1566 1567 1567 1568 1568 1568 1568 1568 1568 1568 1568 1568 1568
1506 1507 1507 1505 1505 1508 1510 1512 1509 1509 1517 1520 1517 1514 1514 1517 1522 1526 1526 1528 1533 1535 1535 1533 1534 1539 1534 1520 1512 1513 1516 1517 1517 1518 1517 1518 1519 1520 1521 1522 1522 1524 1525 1526 1527 1528 1530 1531 1532 1533 1535 1536 1537 1539 1540 1542 1544 1545 1546 1548 1549 1551 1552 1553 1554 1555 1557 1559 1560 1561 1562 1563 1564 1564 1565 1565 1566 1566 1566 1566 1566 1566 1567 1567 1567 1567
1506 1507 1507 1505 1507 1510 1511 1512 1510 1509 1515 1519 1517 1515 1514 1516 1520 1522 1524 1528 1530 1532 1539 1538 1533 1540 1539 1522 1513 1514 1516 1518 1516 1516 1517 1517 1518 1519 1520 1520 1521 1522 1522 1523 1524 1525 1527 1528 1529 1530 1531 1533 1534 1536 1538 1539 1541 1542 1544 1545 1547 1548 1549 1551 1552 1553 1555 1557 1558 1559 1560 1561 1562 1562 1563 1563 1564 1564 1564 1564 1565 1565 1565 1565 1565 1565
1508 1508 1507 1505 1507 1510 1511 1514 1512 1510 1514 1517 1517 1515 1513 1516 1518 1521 1525 1527 1531 1535 1540 1538 1533 1540 1537 1520 1516 1519 1516 1516 1513 1512 1515 1516 1518 1519 1519 1520 1520 1520 1521 1522 1522 1523 1524 1525 1527 1528 1529 1530 1532 1533 1535 1536 1538 1540 1542 1543 1545 1546 1547 1549 1551 1551 1553 1554 1555 1557 1558 1559 1560 1560 1561 1562 1562 1562 1562 1563 1563 1564 1564 1564 1564 1564
1509 1508 1508 1508 1509 1511 1512 1514 1513 1511 1512 1514 1517 1517 1518 1521 1520 1522 1524 1526 1536 1541 1540 1538 1533 1537 1538 1521 1513 1517 1513 1510 1509 1511 1514 1515 1517 1518 1518 1519 1519 1519 1520 1520 1521 1521 1522 1524 1525 1526 1527 1528 1530 1531 1532 1534 1536 1538 1540 1542 1543 1545 1546 1547 1549 1549 1550 1552 1553 1554 1555 1557 1558 1559 1560 1561 1561 1562 1562 1562 1562 1563 1563 1563 1563 1563
1510 1509 1510 1510 1511 1511 1512 1514 1514 1513 1512 1514 1516 1519 1525 1529 1528 1530 1531 1532 1543 1545 1541 1542 1538 1538 1541 1523 1509 1510 1508 1506 1507 1508 1512 1514 1516 1517 1518 1519 1518 1519 1519 1519 1520 1520 1521 1523 1523 1525 1526 1527 1528 1529 1531 1532 1534 1536 1538 1540 1542 1543 1545 1546 1547 1548 1549 1550 1551 1553 1554 1556 1557 1558 1559 1560 1560 1561 1561 1561 1562 1562 1562 1562 1562 1562
1512 1511 1511 1512 1512 1511 1511 1514 1518 1517 1515 1515 1516 1520 1529 1538 1541 1544 1544 1542 1545 1546 1543 1544 1541 1540 1537 1520 1508 1508 1506 1506 1506 1506 1509 1512 1514 1516 1517 1518 1518 1518 1519 1519 1519 1520 1521 1522 1523 1524 1525 1526 1528 1529 1530 1532 1534 1536 1537 1539 1541 1542 1544 1545 1546 1547 1548 1550 1551 1552 1554 1555 1557 1557 1558 1559 1560 1560 1560 1561 1561 1561 1561 1561 1560 1560
1515 1515 1512 1512 1513 1511 1510 1514 1519 1520 1517 1516 1517 1520 1528 1540 1550 1552 1549 1544 1544 1546 1545 1544 1542 1540 1531 1515 1507 1506 1505 1505 1506 1507 1509 1511 1513 1515 1516 1517 1518 1518 1518 1519 1519 1520 1521 1522 1523 1524 1525 1526 1528 1529 1530 1532 1533 1535 1537 1539 1540 1542 1543 1545 1546 1548 1549 1550 1551 1552 1554 1555 1556 1556 1557 1558 1559 1559 1560 1560 1560 1560 1560 1559 1559 1559
1515 1518 1513 1512 1512 1510 1510 1511 1513 1514 1515 1514 1511 1514 1521 1528 1536 1542 1541 1539 1544 1548 1548 1546 1542 1533 1524 1514 1507 1506 1505 1506 1507 1508 1510 1511 1513 1515 1516 1517 1517 1518 1518 1519 1519 1520 1521 1522 1523 1524 1525 1527 1528 1529 1531 1532 1534 1536 1537 1539 1540 1542 1544 1545 1547 1549 1550 1551 1551 1552 1553 1554 1555 1556 1557 1558 1558 1559 1559 1559 1559 1559 1559 1558 1558 1558
1507 1513 1512 1512 1510 1508 1510 1510 1508 1510 1515 1514 1509 1513 1518 1516 1519 1531 1537 1533 1538 1546 1546 1546 1537 1522 1514 1510 1506 1507 1507 1507 1508 1509 1510 1512 1513 1514 1516 1516 1517 1517 1518 1518 1519 1520 1521 1522 1523 1525 1526 1527 1529 1530 1531 1533 1534 1536 1538 1539 1541 1543 1544 1546 1547 1549 1550 1551 1552 1552 1553 1554 1554 1555 1556 1557 1558 1558 1558 1558 1558 1558 1558 1557 1557 1556
1501 1512 1514 1512 1511 1510 1511 1511 1509 1511 1515 1513 1513 1516 1516 1512 1513 1526 1537 1535 1534 1538 1537 1536 1530 1518 1513 1510 1507 1508 1508 1508 1510 1509 1510 1511 1512 1514 1515 1515 1516 1517 1518 1518 1519 1520 1521 1523 1524 1526 1527 1528 1530 1531 1532 1534 1535 1537 1538 1540 1541 1543 1544 1546 1547 1549 1550 1551 1552 1552 1553 1553 1554 1555 1555 1556 1556 1557 1557 1557 1557 1557 1557 1556 1556 1556
1495 1513 1517 1512 1513 1512 1510 1511 1510 1510 1511 1512 1515 1514 1510 1513 1514 1516 1528 1536 1537 1536 1532 1529 1524 1518 1516 1515 1511 1509 1509 1509 1509 1509 1510 1511 1512 1513 1514 1515 1516 1516 1518 1519 1520 1521 1522 1524 1525 1526 1528 1529 1530 1532 1533 1535 1536 1538 1539 1541 1542 1543 1544 1546 1547 1549 1550 1551 1552 1552 1553 1553 1554 1554 1554 1555 1555 1555 1556 1556 1556 1556 1556 1555 1555 1555
1487 1508 1518 1514 1514 1513 1510 1512 1512 1511 1510 1510 1511 1510 1510 1518 1520 1517 1523 1533 1536 1535 1529 1525 1522 1518 1514 1511 1510 1510 1509 1508 1508 1509 1509 1510 1511 1512 1513 1514 1515 1516 1518 1519 1520 1522 1523 1524 1526 1527 1528 1529 1531 1532 1534 1535 1537 1538 1540 1541 1542 1543 1544 1546 1547 1548 1549 1550 1551 1552 1552 1553 1553 1553 1554 1554 1554 1554 1555 1555 1555 1555 1555 1554 1554 1554
1481 1498 1516 1516 1513 1513 1512 1512 1513 1512 1511 1510 1509 1510 1511 1514 1517 1516 1517 1520 1527 1531 1527 1525 1526 1519 1507 1501 1501 1503 1503 1503 1505 1506 1507 1508 1509 1510 1512 1513 1514 1516 1518 1519 1521 1522 1523 1525 1526 1527 1529 1530 1531 1532 1534 1535 1537 1538 1540 1541 1542 1543 1544 1545 1546 1547 1548 1549 1550 1551 1551 1552 1552 1552 1553 1553 1553 1553 1554 1554 1554 1554 1554 1554 1553 1553
1480 1489 1508 1517 1514 1514 1514 1512 1511 1510 1510 1512 1512 1512 1513 1512 1515 1516 1513 1511 1517 1524 1523 1525 1527 1515 1499 1495 1495 1495 1497 1498 1499 1502 1504 1506 1508 1509 1511 1512 1514 1516 1518 1519 1521 1522 1524 1525 1526 1527 1529 1530 1531 1533 1534 1536 1537 1538 1540 1541 1542 1543 1544 1545 1546 1546 1547 1548 1549 1550 1550 1551 1551 1551 1551 1552 1552 1553 1553 1553 1553 1554 1554 1553 1553 1552
1482 1488 1505 1518 1516 1514 1512 1510 1510 1509 1509 1510 1510 1510 1510 1512 1515 1520 1520 1514 1513 1518 1519 1522 1524 1510 1495 1496 1495 1493 1494 1495 1496 1500 1502 1505 1507 1508 1510 1512 1514 1516 1517 1519 1521 1522 1524 1525 1526 1528 1529 1530 1532 1533 1534 1535 1537 1538 1539 1541 1542 1542 1543 1544 1545 1546 1546 1547 1548 1549 1549 1549 1550 1550 1550 1551 1551 1552 1552 1552 1553 1553 1553 1553 1552 1551
1481 1491 1506 1516 1515 1512 1512 1511 1512 1512 1510 1509 1509 1508 1507 1509 1512 1517 1522 1518 1515 1519 1518 1520 1524 1509 1495 1497 1498 1495 1495 1494 1495 1498 1500 1503 1505 1506 1509 1511 1514 1516 1517 1519 1521 1522 1524 1525 1526 1528 1528 1530 1531 1532 1534 1535 1536 1538 1539 1540 1541 1542 1543 1543 1544 1545 1546 1546 1547 1548 1548 1548 1549 1549 1549 1550 1550 1551 1551 1551 1552 1552 1552 1552 1551 1550
1480 1489 1503 1513 1514 1511 1511 1510 1510 1511 1510 1509 1509 1507 1507 1508 1507 1510 1515 1513 1516 1520 1517 1522 1525 1508 1495 1498 1498 1496 1497 1495 1496 1497 1499 1502 1504 1505 1508 1511 1513 1515 1517 1518 1520 1521 1523 1524 1526 1527 1529 1530 1531 1532 1533 1534 1536 1537 1538 1539 1540 1541 1542 1543 1543 1544 1545 1545 1546 1547 1547 1548 1548 1548 1549 1549 1549 1549 1550 1550 1551 1551 1551 1551 1551 1550
1479 1485 1496 1510 1516 1515 1514 1514 1512 1511 1511 1508 1506 1506 1507 1507 1507 1510 1512 1512 1517 1517 1514 1521 1523 1505 1495 1499 1499 1497 1498 1497 1497 1498 1498 1500 1502 1504 1507 1509 1512 1514 1515 1517 1519 1520 1522 1524 1526 1527 1528 1529 1530 1531 1532 1533 1535 1536 1537 1539 1539 1540 1541 1542 1542 1543 1543 1544 1545 1546 1547 1547 1548 1548 1548 1549 1548 1548 1549 1549 1550 1550 1550 1550 1550 1549
1476 1480 1486 1498 1509 1512 1512 1510 1505 1504 1507 1508 1506 1505 1506 1507 1507 1509 1511 1516 1520 1516 1511 1515 1513 1501 1496 1499 1499 1498 1499 1498 1497 1498 1499 1500 1501 1503 1505 1508 1510 1512 1514 1516 1518 1520 1522 1523 1525 1526 1527 1528 1529 1530 1531 1532 1534 1535 1536 1537 1538 1539 1540 1541 1541 1542 1543 1544 1544 1545 1546 1547 1547 1548 1548 1548 1548 1548 1547 1548 1549 1549 1549 1549 1548 1547
1473 1477 1478 1482 1488 1491 1492 1491 1488 1491 1500 1504 1504 1503 1504 1505 1505 1506 1511 1515 1514 1513 1513 1509 1502 1498 1497 1498 1498 1498 1498 1498 1497 1498 1499 1500 1501 1503 1505 1507 1509 1510 1513 1514 1516 1519 1520 1522 1524 1525 1526 1527 1528 1529 1530 1532 1533 1534 1535 1536 1537 1539 1539 1540 1541 1541 1542 1543 1544 1545 1546 1546 1547 1547 1547 1548 1548 1547 1546 1546 1547 1547 1547 1547 1546 1545
1472 1476 1476 1475 1477 1477 1477 1479 1481 1485 1491 1494 1496 1499 1501 1503 1505 1507 1509 1507 1505 1512 1515 1505 1498 1499 1497 1495 1495 1496 1496 1498 1497 1497 1498 1498 1500 1502 1504 1506 1508 1509 1512 1514 1515 1517 1518 1520 1522 1523 1524 1526 1527 1528 1529 1531 1532 1533 1535 1536 1537 1538 1539 1539 1540 1540 1542 1542 1543 1544 1545 1546 1546 1545 1546 1547 1547 1546 1545 1544 1545 1545 1545 1545 1544 1543
1469 1474 1474 1473 1476 1476 1475 1476 1479 1482 1485 1487 1491 1495 1499 1502 1505 1506 1505 1501 1501 1508 1508 1498 1496 1497 1494 1492 1493 1492 1493 1494 1494 1494 1496 1498 1500 1501 1503 1505 1506 1508 1509 1511 1513 1515 1516 1518 1519 1521 1523 1524 1525 1527 1528 1530 1531 1532 1534 1535 1536 1537 1538 1539 1539 1540 1541 1541 1542 1543 1544 1545 1544 1544 1545 1545 1545 1545 1544 1543 1543 1543 1543 1542 1542 1541
1468 1471 1472 1473 1476 1478 1477 1478 1478 1480 1483 1486 1488 1491 1496 1501 1502 1501 1500 1497 1498 1501 1496 1492 1495 1494 1491 1491 1490 1489 1490 1491 1491 1494 1496 1497 1498 1499 1501 1503 1504 1506 1507 1508 1511 1513 1515 1516 1518 1519 1521 1522 1524 1526 1527 1529 1530 1531 1533 1534 1535 1537 1537 1538 1539 1539 1539 1540 1541 1542 1543 1544 1543 1543 1543 1544 1544 1544 1543 1541 1541 1541 1541 1541 1540 1540
1468 1471 1472 1473 1478 1481 1481 1480 1481 1482 1483 1485 1488 1489 1492 1498 1500 1500 1498 1495 1497 1500 1494 1494 1498 1495 1488 1488 1488 1488 1489 1489 1491 1493 1494 1495 1496 1498 1500 1502 1503 1504 1505 1507 1509 1511 1512 1514 1516 1517 1519 1521 1523 1524 1525 1527 1529 1530 1531 1533 1534 1536 1537 1538 1539 1538 1538 1539 1540 1540 1541 1542 1542 1541 1541 1542 1543 1542 1541 1540 1540 1540 1539 1539 1539 1538
1469 1473 1473 1475 1481 1484 1482 1484 1486 1486 1486 1489 1490 1489 1489 1493 1495 1496 1494 1492 1495 1497 1497 1500 1500 1491 1484 1485 1487 1487 1488 1488 1489 1490 1491 1494 1495 1496 1497 1499 1500 1502 1503 1505 1507 1508 1509 1511 1513 1515 1517 1519 1521 1522 1524 1526 1527 1529 1530 1531 1533 1534 1536 1537 1538 1538 1538 1538 1539 1539 1540 1540 1540 1540 1540 1541 1541 1540 1539 1538 1538 1538 1537 1537 1536 1536
1469 1473 1475 1477 1482 1485 1488 1489 1487 1488 1493 1493 1487 1483 1484 1486 1488 1489 1489 1488 1489 1491 1494 1496 1490 1481 1480 1483 1485 1486 1487 1487 1487 1488 1489 1491 1492 1493 1493 1494 1496 1498 1500 1502 1504 1504 1506 1508 1510 1513 1515 1517 1519 1521 1523 1524 1526 1527 1529 1530 1532 1533 1534 1536 1537 1537 1537 1538 1538 1539 1539 1538 1538 1538 1538 1539 1539 1538 1537 1536 1536 1535 1535 1534 1534 1533
1469 1471 1474 1477 1478 1485 1492 1490 1487 1494 1496 1484 1473 1472 1477 1479 1482 1486 1486 1482 1482 1483 1483 1482 1476 1475 1479 1481 1481 1483 1484 1484 1484 1485 1486 1487 1488 1490 1491 1492 1494 1496 1498 1500 1501 1502 1504 1506 1509 1511 1513 1515 1517 1519 1521 1523 1524 1526 1528 1529 1531 1532 1533 1534 1535 1536 1536 1537 1538 1538 1537 1535 1535 1536 1536 1537 1537 1536 1535 1534 1533 1533 1532 1531 1531 1530
1469 1472 1475 1476 1478 1487 1493 1492 1495 1498 1486 1469 1465 1469 1472 1474 1476 1480 1478 1474 1475 1477 1477 1476 1475 1475 1477 1478 1478 1480 1480 1480 1482 1483 1484 1485 1486 1486 1488 1490 1492 1494 1496 1497 1498 1499 1501 1503 1506 1508 1510 1513 1515 1517 1519 1521 1523 1525 1526 1528 1530 1530 1531 1532 1533 1534 1535 1536 1537 1537 1535 1533 1532 1533 1534 1534 1534 1533 1532 1532 1531 1530 1529 1528 1528 1527
1464 1471 1475 1477 1481 1490 1496 1496 1495 1486 1472 1466 1469 1469 1469 1472 1475 1478 1476 1470 1469 1473 1475 1475 1472 1471 1473 1476 1477 1477 1478 1479 1481 1481 1482 1483 1483 1484 1486 1488 1489 1491 1492 1493 1494 1496 1498 1501 1503 1506 1508 1510 1513 1515 1517 1519 1521 1523 1525 1527 1528 1529 1530 1531 1532 1533 1533 1535 1536 1535 1533 1531 1530 1531 1532 1532 1531 1531 1530 1529 1528 1527 1526 1526 1525 1524
1459 1464 1470 1476 1478 1483 1491 1493 1488 1481 1475 1469 1466 1462 1463 1467 1469 1473 1475 1468 1464 1468 1470 1468 1467 1467 1471 1474 1475 1476 1477 1479 1480 1479 1479 1480 1481 1482 1484 1485 1486 1487 1488 1490 1493 1494 1496 1499 1501 1504 1506 1508 1511 1513 1515 1518 1520 1522 1523 1525 1526 1527 1528 1529 1530 1531 1532 1533 1533 1533 1531 1529 1528 1528 1529 1529 1528 1528 1527 1526 1525 1524 1524 1523 1522 1521
1459 1461 1464 1472 1474 1475 1483 1489 1490 1491 1480 1463 1456 1456 1458 1461 1463 1468 1473 1467 1459 1460 1463 1463 1464 1466 1469 1472 1474 1475 1476 1479 1478 1475 1474 1477 1479 1480 1481 1482 1483 1485 1486 1488 1490 1492 1495 1498 1500 1502 1504 1506 1509 1511 1513 1516 1518 1520 1521 1523 1524 1525 1526 1527 1528 1529 1529 1530 1531 1530 1529 1527 1526 1526 1526 1526 1526 1525 1524 1523 1523 1522 1521 1520 1519 1518
1462 1461 1461 1467 1472 1473 1479 1483 1486 1484 1468 1452 1452 1454 1455 1459 1461 1467 1476 1468 1453 1454 1460 1460 1461 1463 1466 1469 1471 1472 1476 1478 1475 1469 1470 1475 1477 1476 1477 1479 1480 1482 1484 1486 1487 1489 1492 1495 1497 1500 1502 1504 1507 1509 1511 1514 1516 1517 1519 1521 1522 1524 1524 1525 1526 1527 1527 1528 1528 1527 1526 1524 1524 1524 1524 1524 1523 1522 1521 1521 1520 1520 1519 1518 1517 1516
1464 1464 1464 1468 1469 1470 1474 1476 1474 1468 1456 1449 1450 1452 1453 1455 1458 1470 1481 1467 1449 1450 1455 1454 1456 1460 1461 1464 1467 1468 1470 1471 1467 1466 1469 1473 1474 1475 1476 1476 1478 1480 1481 1483 1486 1488 1490 1493 1495 1497 1500 1502 1505 1507 1509 1512 1514 1516 1518 1519 1520 1522 1522 1523 1524 1524 1525 1525 1525 1524 1523 1522 1521 1521 1521 1521 1520 1519 1519 1518 1518 1517 1516 1516 1515 1513
1466 1465 1465 1467 1467 1468 1472 1473 1469 1459 1450 1448 1450 1450 1451 1455 1460 1469 1469 1455 1446 1449 1450 1449 1453 1455 1456 1460 1463 1463 1464 1464 1464 1466 1469 1471 1472 1473 1473 1475 1476 1478 1479 1481 1483 1485 1487 1490 1493 1495 1497 1500 1502 1505 1507 1510 1512 1514 1516 1517 1518 1520 1520 1521 1522 1522 1522 1523 1522 1521 1520 1519 1519 1518 1518 1518 1517 1517 1517 1516 1515 1515 1514 1513 1512 1511
1465 1465 1465 1466 1467 1467 1467 1470 1470 1459 1445 1444 1450 1451 1451 1456 1460 1458 1452 1447 1449 1450 1449 1450 1453 1453 1455 1459 1460 1460 1462 1463 1464 1466 1467 1469 1470 1470 1471 1473 1474 1476 1478 1479 1481 1483 1485 1488 1490 1493 1496 1498 1501 1503 1505 1508 1510 1512 1514 1515 1516 1517 1518 1519 1519 1520 1520 1520 1519 1518 1517 1516 1516 1515 1515 1515 1515 1515 1515 1514 1514 1513 1512 1511 1510 1508
1455 1461 1465 1464 1462 1464 1467 1470 1469 1457 1441 1440 1449 1452 1451 1452 1451 1448 1446 1448 1449 1449 1450 1452 1453 1454 1457 1458 1458 1460 1461 1462 1464 1465 1466 1468 1468 1469 1470 1471 1472 1474 1476 1477 1480 1482 1484 1486 1488 1491 1494 1496 1499 1501 1504 1506 1508 1510 1512 1513 1514 1515 1516 1517 1517 1517 1517 1517 1516 1515 1514 1514 1514 1514 1514 1514 1513 1513 1513 1513 1512 1511 1510 1509 1507 1505
1447 1451 1456 1455 1453 1458 1462 1460 1454 1445 1439 1440 1443 1445 1446 1447 1446 1445 1446 1448 1448 1450 1451 1452 1453 1455 1456 1456 1458 1460 1460 1461 1462 1463 1464 1466 1467 1468 1469 1470 1472 1473 1474 1476 1478 1480 1483 1485 1487 1489 1492 1495 1497 1500 1502 1504 1506 1508 1510 1511 1512 1513 1514 1514 1514 1515 1514 1514 1513 1513 1512 1512 1512 1512 1512 1512 1512 1511 1511 1510 1510 1509 1507 1506 1504 1502
1440 1440 1444 1445 1444 1446 1447 1444 1440 1439 1440 1441 1440 1440 1442 1445 1446 1446 1447 1447 1449 1450 1451 1452 1454 1455 1455 1456 1458 1458 1459 1460 1461 1462 1463 1465 1466 1467 1468 1469 1471 1472 1473 1475 1477 1479 1482 1484 1486 1488 1491 1493 1496 1498 1501 1502 1504 1506 1507 1508 1509 1510 1511 1511 1512 1511 1511 1511 1511 1511 1511 1511 1511 1510 1510 1510 1510 1509 1508 1508 1507 1506 1504 1503 1500 1498
1437 1437 1438 1440 1441 1441 1439 1437 1439 1440 1440 1441 1441 1442 1443 1444 1445 1445 1446 1447 1449 1450 1451 1452 1454 1454 1455 1456 1456 1457 1458 1459 1459 1461 1463 1463 1464 1466 1467 1468 1469 1471 1472 1474 1476 1478 1481 1483 1485 1488 1489 1492 1494 1497 1498 1500 1502 1504 1505 1506 1507 1508 1508 1509 1509 1509 1509 1509 1509 1509 1509 1509 1509 1508 1508 1508 1507 1507 1506 1505 1503 1502 1500 1498 1496 1494
1437 1438 1437 1438 1440 1440 1437 1435 1437 1439 1440 1440 1442 1442 1443 1444 1444 1445 1446 1447 1448 1449 1450 1452 1453 1454 1455 1455 1455 1456 1457 1457 1459 1460 1461 1462 1463 1464 1465 1466 1468 1469 1471 1473 1475 1477 1479 1481 1484 1486 1488 1490 1493 1494 1497 1499 1500 1501 1502 1503 1504 1505 1505 1506 1506 1506 1506 1506 1506 1507 1506 1506 1506 1506 1506 1505 1505 1504 1503 1502 1500 1498 1496 1494 1492 1489
1434 1436 1437 1437 1437 1436 1435 1436 1437 1438 1439 1440 1441 1442 1443 1444 1444 1444 1445 1446 1447 1448 1450 1451 1452 1453 1454 1454 1455 1456 1456 1457 1458 1458 1459 1460 1461 1462 1463 1465 1466 1468 1470 1472 1474 1476 1478 1480 1483 1485 1487 1489 1491 1492 1495 1496 1497 1499 1500 1501 1502 1502 1503 1503 1504 1504 1504 1504 1504 1504 1503 1503 1503 1503 1503 1503 1502 1501 1500 1499 1497 1495 1493 1490 1488 1485
1432 1434 1434 1434 1434 1434 1435 1437 1438 1438 1438 1440 1440 1441 1442 1443 1443 1444 1445 1446 1447 1448 1449 1450 1451 1452 1453 1454 1454 1455 1455 1456 1456 1457 1458 1459 1460 1461 1463 1464 1465 1468 1470 1472 1474 1476 1478 1480 1482 1484 1486 1488 1489 1491 1493 1494 1495 1497 1497 1498 1499 1500 1500 1501 1501 1501 1501 1501 1501 1501 1501 1501 1500 1500 1499 1499 1498 1497 1496 1495 1493 1491 1489 1487 1485 1483
1430 1431 1430 1431 1434 1434 1434 1435 1436 1437 1438 1439 1440 1440 1442 1442 1443 1444 1445 1446 1447 1448 1448 1449 1450 1451 1452 1452 1453 1453 1454 1454 1455 1456 1457 1458 1459 1460 1461 1463 1465 1467 1469 1471 1474 1475 1477 1480 1481 1483 1485 1486 1488 1489 1491 1492 1493 1494 1495 1496 1496 1497 1497 1498 1497 1498 1498 1498 1498 1498 1498 1497 1497 1496 1496 1495 1494 1493 1492 1491 1490 1488 1486 1484 1482 1480
1427 1427 1427 1429 1431 1432 1432 1433 1434 1435 1438 1440 1440 1441 1441 1442 1442 1443 1444 1445 1446 1446 1447 1448 1449 1450 1451 1451 1452 1453 1453 1454 1455 1455 1456 1457 1458 1459 1461 1462 1464 1466 1468 1470 1472 1473 1476 1477 1479 1481 1483 1484 1486 1487 1488 1489 1490 1491 1492 1493 1494 1494 1494 1494 1494 1495 1495 1495 1495 1495 1495 1494 1494 1493 1492 1491 1490 1489 1488 1488 1486 1485 1483 1481 1479 1477